TimeEDT,TemperatureF,Dew PointF,Humidity,Sea Level PressureIn,VisibilityMPH,Wind Direction,Wind SpeedMPH,Gust SpeedMPH,PrecipitationIn,Events,Conditions,WindDirDegrees,DateUTC
12:56 AM,73.0,63.0,71,30.14,10.0,South,3.5,-,N/A,,Clear,190,2013-06-23 04:56:00
1:56 AM,71.1,63.0,75,30.12,10.0,SSW,3.5,-,N/A,,Clear,200,2013-06-23 05:56:00
2:56 AM,71.1,63.0,75,30.12,10.0,South,3.5,-,N/A,,Clear,170,2013-06-23 06:56:00
3:56 AM,70.0,63.0,78,30.12,10.0,Calm,Calm,-,N/A,,Clear,0,2013-06-23 07:56:00
4:56 AM,68.0,62.1,81,30.12,9.0,Calm,Calm,-,N/A,,Clear,0,2013-06-23 08:56:00
5:52 AM,64.4,62.6,94,30.18,2.0,Calm,Calm,-,N/A,,Clear,0,2013-06-23 09:52:00
5:56 AM,64.9,62.1,90,30.14,2.5,Calm,Calm,-,N/A,,Clear,0,2013-06-23 09:56:00
6:05 AM,66.2,62.6,88,30.18,4.0,South,3.5,-,N/A,,Clear,170,2013-06-23 10:05:00
6:56 AM,69.1,63.0,81,30.15,8.0,Calm,Calm,-,N/A,,Partly Cloudy,0,2013-06-23 10:56:00
7:56 AM,72.0,64.9,78,30.16,9.0,Calm,Calm,-,N/A,,Clear,0,2013-06-23 11:56:00
8:56 AM,75.9,66.0,71,30.15,10.0,WSW,5.8,-,N/A,,Clear,240,2013-06-23 12:56:00
9:56 AM,78.1,66.9,68,30.15,10.0,SW,6.9,-,N/A,,Clear,220,2013-06-23 13:56:00
10:56 AM,81.0,66.9,62,30.14,10.0,WSW,10.4,16.1,N/A,,Clear,240,2013-06-23 14:56:00
11:56 AM,82.9,66.0,56,30.14,10.0,SW,5.8,-,N/A,,Partly Cloudy,230,2013-06-23 15:56:00
12:56 PM,84.0,64.0,51,30.12,10.0,WSW,9.2,-,N/A,,Scattered Clouds,240,2013-06-23 16:56:00
1:56 PM,84.0,62.1,47,30.11,10.0,South,9.2,-,N/A,,Partly Cloudy,190,2013-06-23 17:56:00
2:56 PM,86.0,64.0,48,30.09,10.0,SW,9.2,-,N/A,,Partly Cloudy,220,2013-06-23 18:56:00
3:56 PM,86.0,63.0,46,30.08,10.0,WSW,10.4,19.6,N/A,,Clear,250,2013-06-23 19:56:00
4:56 PM,86.0,62.1,44,30.06,10.0,SW,10.4,-,N/A,,Scattered Clouds,220,2013-06-23 20:56:00
5:56 PM,84.0,62.1,47,30.06,10.0,SW,9.2,-,N/A,,Partly Cloudy,230,2013-06-23 21:56:00
6:56 PM,82.9,62.1,49,30.05,10.0,WSW,8.1,-,N/A,,Clear,250,2013-06-23 22:56:00
7:56 PM,80.1,64.0,58,30.06,10.0,SW,3.5,-,N/A,,Clear,230,2013-06-23 23:56:00
8:56 PM,75.0,63.0,66,30.07,10.0,SW,4.6,-,N/A,,Clear,230,2013-06-24 00:56:00
9:56 PM,73.0,62.1,68,30.09,10.0,SW,3.5,-,N/A,,Clear,230,2013-06-24 01:56:00
10:56 PM,72.0,62.1,71,30.11,10.0,Calm,Calm,-,N/A,,Clear,0,2013-06-24 02:56:00
11:56 PM,70.0,62.1,76,30.12,10.0,SW,4.6,-,N/A,,Clear,220,2013-06-24 03:56:00